[[{"header":{"parameterUnit":"m.s-1","parameterCategory":2,"la1":30.2991,"la2":30.254,"lo1":-89.0895,"lo2":-89.0444,"dy":0.0017,"dx":0.0017,"nx":28,"ny":28,"refTime":"2025-05-26T21:00:00:Z","depth":"0","parameterNumber":2,"parameterNumberName":"U-component_of_CURRENTS"},"data":[0,0,0,0,0,0,0,0,0,0,0,0,0,0,0,0,0,0,0,0,0,0,0,0,0,0,0,0,0,0,0,0,0,0,0,0,0,0,0,0,0,0,0,0,0,0,0,0,0,0,0,0,0,0,0,0,0,0,0.3127,0.3128,0,0.3201,0.3202,0.3202,0.3194,0.3194,0.3193,0.3192,0.3178,0.3178,0.3179,0,0,0,0,0,0,0,0,0,0,0,0,0,0.2982,0.2984,0.3127,0.3128,0.3129,0.3201,0.3202,0.3202,0.3194,0.3193,0.3193,0.3192,0.3178,0.3178,0.3179,0,0,0,0,0,0,0,0,0,0,0,0,0,0.3045,0.2985,0.3127,0.3137,0.3139,0.3201,0.3202,0.3203,0.3195,0.3193,0.3192,0.3191,0.3178,0.3178,0.3179,0.3206,0,0,0.318,0.3181,0,0,0,0,0,0,0,0,0.3042,0.305,0.3134,0.3137,0.3139,0.3191,0.3146,0.3201,0.3195,0.3169,0.3192,0.3191,0.3178,0.3178,0.319,0.3205,0.3205,0.318,0.3181,0.3181,0.3181,0,0,0,0,0,0,0,0.3037,0.3047,0.3152,0.3136,0.3139,0.314,0.3147,0.3156,0.3174,0.3171,0.3172,0.3187,0.3177,0.319,0.3189,0.3204,0.318,0.3181,0.3181,0.3181,0.3239,0.324,0,0,0,0,0,0,0.3038,0.3043,0.315,0.3155,0.3091,0.3144,0.3152,0.3172,0.3176,0.3178,0.3188,0.3187,0.3189,0.3189,0.3189,0.3208,0.3181,0.3181,0.3182,0.3238,0.3239,0.3241,0,0,0,0,0,0,0.3035,0.3047,0.3147,0.3103,0.3116,0.3148,0.3171,0.3174,0.3185,0.3191,0.3189,0.3195,0.3188,0.3188,0.32,0.3207,0.3182,0.3182,0.3236,0.3238,0.324,0.3254,0,0,0,0,0,0,0.303,0.3046,0.306,0.3104,0.3119,0.3185,0.3172,0.3177,0.3198,0.3197,0.3197,0.3194,0.3187,0.3199,0.32,0.3208,0.3183,0.3235,0.3237,0.3239,0.3252,0.3256,0.3259,0,0,0,0,0,0.3025,0.3049,0.306,0.3073,0.3138,0.3187,0.3194,0.3209,0.32,0.3211,0.321,0.3194,0.3214,0.3201,0.3202,0.3209,0.3234,0.3237,0.3239,0.325,0.3255,0.3259,0,0,0,0,0,0,0.2992,0.3052,0.3065,0.3105,0.3145,0.3187,0.3204,0.3213,0.3224,0.3219,0.321,0.3209,0.3227,0.3221,0.3206,0.3235,0.3222,0.3225,0.323,0.3234,0.3238,0.3335,0.3183,0,0,0,0,0,0.2994,0.3028,0.3081,0.3114,0.3135,0.3169,0.319,0.3205,0.3224,0.3228,0.323,0.3233,0.3242,0.3238,0.3253,0.3264,0.3369,0.3271,0.3275,0.3278,0.336,0.359,0.3625,0.325,0.3249,0.3249,0,0,0.2989,0.303,0.3047,0.311,0.314,0.3171,0.3178,0.3216,0.3239,0.3225,0.3248,0.3252,0.3253,0.327,0.3276,0.326,0.3413,0.3281,0.3283,0.3366,0.3597,0.3635,0.3668,0.3251,0.3251,0.3251,0,0,0.2992,0.3035,0.3057,0.3093,0.3149,0.3178,0.3189,0.3235,0.3252,0.3277,0.3278,0.3311,0.3295,0.3328,0.333,0.3372,0.3436,0.334,0.3426,0.3645,0.3681,0.3713,0.3786,0.3825,0.3329,0.333,0.333,0,0.2978,0.3033,0.3071,0.3101,0.3146,0.3178,0.3217,0.3237,0.3279,0.333,0.3282,0.3373,0.3341,0.3426,0.3421,0.3386,0.3489,0.3396,0.3658,0.3693,0.3727,0.3795,0.3838,0.3331,0.333,0.333,0.333,0,0.2997,0.3044,0.3065,0.3119,0.3161,0.321,0.3253,0.3293,0.3312,0.3356,0.3454,0.3454,0.3532,0.3488,0.3453,0.365,0.3631,0.3646,0.3656,0.3767,0.3827,0.3872,0.3332,0.3332,0.3331,0.3331,0,0,0.2965,0.3061,0.3067,0.3129,0.319,0.3244,0.3285,0.3384,0.3474,0.3493,0.3639,0.3627,0.3687,0.3703,0.3686,0.3834,0.4065,0.3838,0.3849,0.3926,0.4487,0.4351,0.4385,0.4154,0.4164,0.4173,0.4396,0,0.2978,0.3063,0.3097,0.319,0.3259,0.3315,0.3373,0.3459,0.3533,0.3672,0.3728,0.3834,0.3747,0.3801,0.3947,0.4065,0.4206,0.3999,0.436,0.4369,0.4253,0.4444,0.4338,0.4524,0.444,0.4448,0.4453,0,0.3,0.3067,0.3164,0.3308,0.3341,0.3389,0.3567,0.3623,0.3794,0.3858,0.4001,0.4061,0.4236,0.4169,0.4483,0.4367,0.4459,0.4528,0.454,0.4475,0.4325,0.4424,0.461,0.445,0.4524,0.4518,0.4513,0,0.3039,0.3132,0.3234,0.3274,0.3407,0.3477,0.3551,0.3702,0.3786,0.4019,0.4117,0.4343,0.445,0.4675,0.4741,0.4681,0.5095,0.5024,0.4979,0.4962,0.4981,0.495,0.5095,0.5334,0.5333,0.5333,0.5332,0,0.3099,0.3191,0.3266,0.3338,0.3465,0.3541,0.3698,0.3802,0.3969,0.4094,0.4237,0.4376,0.4611,0.4806,0.4896,0.5065,0.5228,0.508,0.508,0.4958,0.4924,0.4869,0.4761,0.5341,0.5339,0.5338,0.5336,0,0.3184,0.3228,0.3351,0.3466,0.3503,0.3605,0.3733,0.3835,0.3993,0.4172,0.4247,0.4478,0.4733,0.49,0.5231,0.5219,0.5271,0.5419,0.5168,0.5136,0.4901,0.4795,0.4845,0.4703,0.5453,0.5452,0.5451,0,0.3267,0.3325,0.3422,0.3462,0.3524,0.3642,0.3703,0.3842,0.3928,0.4198,0.4279,0.4568,0.4724,0.5102,0.5235,0.5424,0.525,0.5364,0.5245,0.4952,0.4839,0.4608,0.4467,0.5224,0.5222,0.522,0.5218,0,0.3399,0.3404,0.3481,0.3539,0.36,0.3655,0.3751,0.3805,0.396,0.4098,0.4287,0.4448,0.4787,0.4949,0.5169,0.5268,0.5101,0.5317,0.5185,0.4846,0.4457,0.4293,0.4883,0.5199,0.5201,0.5202,0.5203,0.5204,0.348,0.3526,0.3567,0.3617,0.3649,0.3653,0.3673,0.3743,0.3849,0.4,0.4197,0.4365,0.4658,0.4974,0.5018,0.501,0.4945,0.4921,0.4862,0.4685,0.4438,0.4892,0.5089,0.509,0.5091,0.5092,0.5093,0,0.3572,0.3592,0.3632,0.3657,0.3632,0.3658,0.3679,0.3655,0.3702,0.3864,0.4003,0.4243,0.4429,0.4621,0.475,0.4598,0.4424,0.4483,0.4201,0.412,0.4732,0.4608,0.4505,0.4505,0.4505,0.4506,0.4506,0.4506,0.3633,0.3674,0.3656,0.3621,0.3605,0.3539,0.3516,0.3485,0.3543,0.3604,0.3689,0.3856,0.4153,0.4416,0.4353,0.4267,0.3911,0.3779,0.3685,0.4163,0.4199,0.4233,0.4095,0.3886,0.3886,0.2979,0.2972,0.2967]},{"header":{"parameterUnit":"m.s-1","parameterCategory":2,"la1":30.2991,"la2":30.254,"lo1":-89.0895,"lo2":-89.0444,"dy":0.0017,"dx":0.0017,"nx":28,"ny":28,"refTime":"2025-05-26T21:00:00:Z","depth":"0","parameterNumber":3,"parameterNumberName":"V-component_of_CURRENTS"},"data":[0,0,0,0,0,0,0,0,0,0,0,0,0,0,0,0,0,0,0,0,0,0,0,0,0,0,0,0,0,0,0,0,0,0,0,0,0,0,0,0,0,0,0,0,0,0,0,0,0,0,0,0,0,0,0,0,0,0,-0.0134,-0.0135,0,-0.0252,-0.0254,-0.0255,-0.0323,-0.0323,-0.0323,-0.0323,-0.0466,-0.047,-0.0473,0,0,0,0,0,0,0,0,0,0,0,0,0,-0.0023,-0.0024,-0.0134,-0.0135,-0.0137,-0.0252,-0.0254,-0.0255,-0.0323,-0.0323,-0.0323,-0.0323,-0.0465,-0.0469,-0.0474,0,0,0,0,0,0,0,0,0,0,0,0,0,-0.01,-0.0024,-0.0134,-0.0183,-0.0189,-0.0252,-0.0254,-0.0256,-0.0323,-0.0323,-0.0323,-0.0323,-0.0464,-0.0469,-0.0474,-0.0504,0,0,-0.0491,-0.0494,0,0,0,0,0,0,0,0,-0.0095,-0.0104,-0.0175,-0.018,-0.0186,-0.0272,-0.0267,-0.034,-0.0323,-0.0273,-0.0323,-0.0323,-0.0403,-0.0413,-0.0436,-0.051,-0.0516,-0.0492,-0.0495,-0.0497,-0.0499,0,0,0,0,0,0,0,-0.009,-0.0099,-0.0182,-0.0176,-0.0183,-0.0219,-0.023,-0.0281,-0.0336,-0.0277,-0.0282,-0.0294,-0.0406,-0.0431,-0.044,-0.0519,-0.0492,-0.0496,-0.05,-0.0502,-0.0623,-0.0622,0,0,0,0,0,0,-0.007,-0.0094,-0.0178,-0.0185,-0.0139,-0.0221,-0.0233,-0.0245,-0.0335,-0.0349,-0.0293,-0.0297,-0.0421,-0.0433,-0.0445,-0.0458,-0.0497,-0.0502,-0.0506,-0.0623,-0.0622,-0.0622,0,0,0,0,0,0,-0.0067,-0.0076,-0.0173,-0.0141,-0.0156,-0.0222,-0.0236,-0.0247,-0.0273,-0.0347,-0.0362,-0.0306,-0.0422,-0.0438,-0.0492,-0.0465,-0.0505,-0.051,-0.0623,-0.0623,-0.0622,-0.0502,0,0,0,0,0,0,-0.0064,-0.0075,-0.0077,-0.014,-0.0157,-0.0211,-0.0236,-0.0249,-0.0279,-0.0284,-0.0363,-0.0377,-0.0423,-0.0483,-0.0497,-0.0474,-0.0514,-0.0623,-0.0623,-0.0622,-0.0506,-0.0498,-0.049,0,0,0,0,0,-0.0059,-0.0066,-0.0076,-0.0087,-0.0158,-0.0211,-0.0223,-0.0271,-0.0279,-0.0293,-0.0343,-0.0374,-0.0492,-0.0488,-0.0504,-0.0482,-0.0623,-0.0623,-0.0622,-0.0509,-0.0499,-0.0491,0,0,0,0,0,0,-0.0023,-0.0075,-0.0088,-0.011,-0.0154,-0.0222,-0.0239,-0.0266,-0.0316,-0.0317,-0.0382,-0.0399,-0.0438,-0.0483,-0.0477,-0.0518,-0.0559,-0.0562,-0.0468,-0.0459,-0.0451,-0.0341,-0.0519,0,0,0,0,0,-0.0012,-0.0029,-0.0084,-0.0101,-0.0119,-0.0174,-0.0199,-0.0229,-0.0281,-0.0303,-0.0355,-0.0407,-0.045,-0.0472,-0.0528,-0.0551,-0.0507,-0.0547,-0.0539,-0.0532,-0.0455,-0.0327,-0.0297,-0.0622,-0.0622,-0.0622,0,0,-0.0003,-0.0033,-0.0044,-0.0094,-0.0129,-0.0145,-0.0191,-0.0225,-0.0227,-0.0311,-0.0332,-0.0391,-0.0456,-0.0482,-0.0501,-0.0513,-0.044,-0.0532,-0.0525,-0.045,-0.0323,-0.029,-0.0261,-0.0622,-0.0622,-0.0622,0,0,0.001,-0.0018,-0.0024,-0.0052,-0.0097,-0.0128,-0.0131,-0.0191,-0.0207,-0.0247,-0.0293,-0.0309,-0.0414,-0.0412,-0.0435,-0.0414,-0.041,-0.0466,-0.0322,-0.0201,-0.017,-0.0142,-0.0123,-0.0094,-0.045,-0.0449,-0.0449,0,0.0024,0.0025,-0.0035,-0.0043,-0.0035,-0.011,-0.009,-0.0133,-0.0199,-0.016,-0.0243,-0.0269,-0.0357,-0.0295,-0.0311,-0.0385,-0.0346,-0.0351,-0.018,-0.0151,-0.0124,-0.011,-0.0079,-0.0444,-0.0444,-0.0445,-0.0445,0,0.0036,0.0046,0.0042,0.0024,0.001,0.0013,-0.0033,-0.0035,-0.0065,-0.0073,-0.0036,-0.0128,-0.0104,-0.0173,-0.0253,-0.011,-0.0161,-0.0188,-0.0181,-0.0082,-0.0078,-0.0048,-0.0435,-0.0437,-0.0439,-0.044,0,0,0.0064,0.0059,0.0062,0.0125,0.0068,0.009,0.0085,0.0125,0.022,0.0128,0.0275,0.0151,0.016,0.014,0.0065,0.0133,0.0269,0.0056,0.0059,0.0114,0.0491,0.0317,0.0331,0.0291,0.0298,0.0304,0.0391,0,0.0112,0.0176,0.0134,0.0226,0.0286,0.0248,0.0286,0.031,0.0317,0.0423,0.0385,0.0451,0.0261,0.0305,0.0344,0.0319,0.0368,0.0245,0.0356,0.0358,0.0228,0.037,0.0327,0.0393,0.042,0.0425,0.0429,0,0.0171,0.022,0.0331,0.045,0.0472,0.0508,0.0663,0.0679,0.0766,0.0784,0.0851,0.082,0.0893,0.0723,0.0779,0.0716,0.0628,0.0573,0.0576,0.0423,0.0247,0.031,0.0447,0.0156,0.0475,0.0471,0.0468,0,0.0342,0.039,0.0523,0.0547,0.0622,0.0707,0.0751,0.083,0.0917,0.1062,0.1167,0.1219,0.1288,0.124,0.1036,0.0963,0.1088,0.0979,0.0734,0.0715,0.0711,0.068,0.0634,0.1064,0.1063,0.1063,0.1063,0,0.0483,0.0604,0.0633,0.0728,0.0915,0.0903,0.1117,0.1162,0.1285,0.1453,0.1401,0.1555,0.1436,0.1433,0.1227,0.1071,0.1243,0.0825,0.0777,0.073,0.0701,0.0468,0.0305,0.1066,0.1065,0.1065,0.1064,0,0.0707,0.0711,0.0883,0.0977,0.102,0.1172,0.1305,0.1444,0.1537,0.1767,0.1831,0.1886,0.188,0.1673,0.1598,0.1324,0.1015,0.1061,0.0942,0.0878,0.0338,0.0183,0.0166,0.0048,0.0864,0.0861,0.0859,0,0.0856,0.0954,0.1077,0.1155,0.1214,0.1388,0.1491,0.1579,0.1709,0.1959,0.209,0.2163,0.221,0.1982,0.1562,0.122,0.0953,0.0899,0.0746,0.0362,0.0158,0.0066,-0.0036,0.0755,0.0752,0.0749,0.0747,0,0.111,0.113,0.1234,0.1373,0.1496,0.1646,0.18,0.1937,0.2065,0.2271,0.2517,0.26,0.2349,0.2014,0.1476,0.1198,0.0684,0.0826,0.055,0.0188,-0.0012,-0.0169,0.0549,0.0724,0.0726,0.0728,0.0729,0.073,0.1269,0.1359,0.1427,0.1569,0.1698,0.1858,0.2008,0.2175,0.2422,0.2728,0.2792,0.2958,0.2387,0.1669,0.126,0.0418,0.0476,0.0155,0.0032,-0.0001,-0.0196,0.0391,0.0418,0.0419,0.0419,0.042,0.042,0,0.1393,0.1451,0.1593,0.1736,0.1879,0.1926,0.2162,0.2319,0.2613,0.2913,0.3134,0.2913,0.2179,0.1442,0.0313,-0.0253,-0.0412,-0.0556,-0.065,-0.0691,-0.0042,-0.0139,-0.0373,-0.0373,-0.0373,-0.0373,-0.0372,-0.0372,0.1452,0.156,0.1606,0.1832,0.1944,0.2151,0.2288,0.2558,0.2797,0.3152,0.3268,0.3318,0.2624,0.0662,-0.0635,-0.0909,-0.1267,-0.1367,-0.1521,-0.1098,-0.104,-0.0984,-0.1112,-0.1547,-0.1548,-0.2089,-0.2095,-0.21]}],[{"header":{"parameterUnit":"m.s-1","parameterCategory":2,"la1":30.2991,"la2":30.254,"lo1":-89.0895,"lo2":-89.0444,"dy":0.0017,"dx":0.0017,"nx":28,"ny":28,"refTime":"2025-05-26T21:00:00:Z","depth":"2","parameterNumber":2,"parameterNumberName":"U-component_of_CURRENTS"},"data":[0,0,0,0,0,0,0,0,0,0,0,0,0,0,0,0,0,0,0,0,0,0,0,0,0,0,0,0,0,0,0,0,0,0,0,0,0,0,0,0,0,0,0,0,0,0,0,0,0,0,0,0,0,0,0,0,0,0,0.254,0.2542,0,0.2624,0.2624,0.2624,0.2591,0.259,0.2589,0.2588,0.2777,0.2783,0.2788,0,0,0,0,0,0,0,0,0,0,0,0,0,0.2391,0.2392,0.254,0.2542,0.2545,0.2624,0.2624,0.2624,0.2591,0.259,0.2589,0.2588,0.2775,0.2782,0.2789,0,0,0,0,0,0,0,0,0,0,0,0,0,0.2451,0.2393,0.254,0.2547,0.2549,0.2624,0.2624,0.2624,0.2591,0.259,0.2589,0.2588,0.2773,0.2781,0.279,0.2868,0,0,0.2816,0.282,0,0,0,0,0,0,0,0,0.2448,0.2455,0.2544,0.2547,0.255,0.2607,0.2641,0.2715,0.2592,0.2562,0.2588,0.2587,0.2739,0.275,0.2749,0.2876,0.2885,0.2817,0.2822,0.2826,0.2829,0,0,0,0,0,0,0,0.2443,0.2452,0.2561,0.2547,0.255,0.256,0.2566,0.2653,0.2649,0.2565,0.2566,0.2595,0.2739,0.2741,0.2754,0.2887,0.2817,0.2825,0.283,0.2833,0.3079,0.3081,0,0,0,0,0,0,0.2458,0.2448,0.2558,0.2564,0.2509,0.2565,0.257,0.2579,0.2645,0.2657,0.2596,0.2594,0.2727,0.2744,0.2761,0.2887,0.2826,0.2834,0.2839,0.3078,0.308,0.3081,0,0,0,0,0,0,0.2454,0.2466,0.2555,0.2519,0.2532,0.257,0.258,0.2582,0.2601,0.2671,0.2681,0.2616,0.2726,0.2749,0.2868,0.2893,0.2838,0.2846,0.3077,0.3079,0.308,0.3122,0,0,0,0,0,0,0.2449,0.2463,0.248,0.2519,0.2536,0.2642,0.2582,0.2585,0.2626,0.2623,0.2692,0.2706,0.2727,0.2855,0.2877,0.2904,0.2853,0.3075,0.3077,0.308,0.3119,0.3125,0.313,0,0,0,0,0,0.2443,0.2495,0.2479,0.2494,0.2554,0.2647,0.2656,0.2669,0.2629,0.267,0.2703,0.2705,0.2884,0.2866,0.289,0.292,0.3074,0.3077,0.308,0.3116,0.3124,0.313,0,0,0,0,0,0,0.2475,0.2499,0.2482,0.2546,0.2605,0.2647,0.2702,0.2686,0.2737,0.2734,0.2758,0.2779,0.288,0.2904,0.2882,0.2993,0.2966,0.2974,0.2985,0.2993,0.2999,0.3046,0.286,0,0,0,0,0,0.2481,0.2496,0.255,0.2603,0.2644,0.2664,0.2701,0.2706,0.2758,0.2775,0.2819,0.2859,0.2909,0.2956,0.3015,0.3109,0.3152,0.3131,0.3137,0.3142,0.3195,0.3319,0.3342,0.3091,0.3091,0.3091,0,0,0.2506,0.2527,0.2536,0.2606,0.2649,0.2706,0.2682,0.2763,0.2792,0.2798,0.2873,0.2904,0.2941,0.3025,0.307,0.3054,0.3217,0.3145,0.3149,0.3201,0.3325,0.335,0.3372,0.3093,0.3093,0.3092,0,0,0.2563,0.2593,0.2617,0.2667,0.2743,0.277,0.2797,0.2855,0.2875,0.2953,0.2943,0.3009,0.3088,0.3123,0.3142,0.3228,0.3247,0.3217,0.3295,0.3413,0.3436,0.3457,0.3464,0.3486,0.3216,0.3216,0.3217,0,0.2578,0.2628,0.2654,0.2701,0.2761,0.2796,0.2863,0.2893,0.2972,0.3018,0.299,0.3112,0.3134,0.3236,0.3241,0.3246,0.3287,0.3261,0.3425,0.3447,0.3468,0.3471,0.3495,0.3219,0.3219,0.3218,0.3218,0,0.264,0.2693,0.2744,0.2783,0.2849,0.2939,0.2992,0.3055,0.3071,0.3094,0.3214,0.3253,0.3329,0.3315,0.3304,0.3447,0.3413,0.3419,0.3412,0.3497,0.3492,0.3516,0.3222,0.3221,0.3221,0.322,0,0,0.2638,0.275,0.2766,0.2812,0.2909,0.2975,0.3059,0.3167,0.3227,0.3287,0.3389,0.3442,0.347,0.3497,0.3497,0.3586,0.3709,0.357,0.3575,0.3584,0.3914,0.3733,0.374,0.3761,0.3767,0.3772,0.3822,0,0.2683,0.2782,0.2828,0.2944,0.3025,0.3093,0.3171,0.3255,0.3324,0.3434,0.3492,0.358,0.3533,0.3573,0.3665,0.3723,0.3789,0.3691,0.3828,0.383,0.3669,0.377,0.3506,0.3519,0.3846,0.385,0.3852,0,0.2736,0.2797,0.2915,0.3048,0.3091,0.3151,0.3312,0.3383,0.3527,0.3585,0.3698,0.3734,0.3866,0.3811,0.3982,0.393,0.3939,0.3961,0.3964,0.3819,0.3698,0.3504,0.355,0.3892,0.3889,0.3886,0.3884,0,0.2747,0.2876,0.2976,0.3019,0.3153,0.3224,0.3304,0.3438,0.3503,0.3697,0.3752,0.3926,0.3993,0.4105,0.4082,0.4081,0.4238,0.4234,0.4069,0.4051,0.3868,0.3824,0.4377,0.4377,0.4377,0.4377,0.4376,0,0.2801,0.2882,0.2989,0.3038,0.3143,0.3248,0.3367,0.3469,0.3614,0.3683,0.383,0.3901,0.4085,0.4146,0.4163,0.4157,0.4296,0.4122,0.4093,0.3858,0.3815,0.4189,0.4166,0.4378,0.4378,0.4378,0.4377,0,0.2794,0.2887,0.2978,0.3106,0.3151,0.3217,0.3343,0.3396,0.3574,0.3676,0.3733,0.3923,0.4037,0.411,0.4262,0.4209,0.4245,0.4185,0.3829,0.3759,0.3962,0.3941,0.4099,0.4094,0.4089,0.4086,0.4083,0,0.2794,0.2843,0.2962,0.2973,0.3025,0.3128,0.3165,0.3354,0.3397,0.3636,0.3655,0.3835,0.388,0.4004,0.4019,0.4032,0.4118,0.3739,0.3713,0.3999,0.3955,0.394,0.3925,0.345,0.3442,0.3436,0.343,0,0.2714,0.2757,0.2791,0.2829,0.287,0.2936,0.3019,0.3061,0.3261,0.3369,0.3536,0.3621,0.3753,0.3695,0.3664,0.3627,0.3738,0.3606,0.4069,0.3543,0.3387,0.3342,0.335,0.3372,0.3378,0.3382,0.3385,0.3388,0.2577,0.2565,0.2583,0.2619,0.2669,0.2714,0.2722,0.2811,0.2904,0.2996,0.3233,0.3278,0.3402,0.3275,0.3188,0.3155,0.3413,0.3291,0.3312,0.3341,0.3239,0.3084,0.2986,0.299,0.2993,0.2995,0.2998,0,0.2328,0.2349,0.2353,0.2387,0.2372,0.2508,0.257,0.2539,0.2581,0.2707,0.2814,0.2666,0.2637,0.2761,0.2651,0.2653,0.2643,0.254,0.254,0.26,0.2652,0.2516,0.2072,0.2069,0.2066,0.2063,0,0,0.2176,0.2089,0.2124,0.2066,0.2127,0.2105,0.2132,0.2129,0.2196,0.2141,0.218,0.2397,0.2646,0.2313,0.2301,0.2176,0.2351,0.2079,0.2828,0.2886,0.2934,0.3099,0.2958,0,0,0,0,0]},{"header":{"parameterUnit":"m.s-1","parameterCategory":2,"la1":30.2991,"la2":30.254,"lo1":-89.0895,"lo2":-89.0444,"dy":0.0017,"dx":0.0017,"nx":28,"ny":28,"refTime":"2025-05-26T21:00:00:Z","depth":"2","parameterNumber":3,"parameterNumberName":"V-component_of_CURRENTS"},"data":[0,0,0,0,0,0,0,0,0,0,0,0,0,0,0,0,0,0,0,0,0,0,0,0,0,0,0,0,0,0,0,0,0,0,0,0,0,0,0,0,0,0,0,0,0,0,0,0,0,0,0,0,0,0,0,0,0,0,-0.027,-0.0272,0,-0.0365,-0.0365,-0.0366,-0.0394,-0.0394,-0.0394,-0.0394,-0.0591,-0.0596,-0.0602,0,0,0,0,0,0,0,0,0,0,0,0,0,-0.0187,-0.0187,-0.027,-0.0272,-0.0273,-0.0364,-0.0365,-0.0366,-0.0394,-0.0394,-0.0394,-0.0394,-0.0589,-0.0596,-0.0602,0,0,0,0,0,0,0,0,0,0,0,0,0,-0.0242,-0.0187,-0.027,-0.0301,-0.0305,-0.0364,-0.0365,-0.0367,-0.0394,-0.0394,-0.0394,-0.0394,-0.0587,-0.0595,-0.0603,-0.0656,0,0,-0.0628,-0.0631,0,0,0,0,0,0,0,0,-0.0239,-0.0244,-0.0295,-0.0299,-0.0304,-0.0371,-0.0409,-0.047,-0.0394,-0.0356,-0.0394,-0.0394,-0.053,-0.0543,-0.0553,-0.0665,-0.0673,-0.0628,-0.0633,-0.0637,-0.0639,0,0,0,0,0,0,0,-0.0235,-0.0241,-0.0303,-0.0297,-0.0302,-0.0336,-0.0342,-0.042,-0.0441,-0.0359,-0.0363,-0.038,-0.0532,-0.0545,-0.0559,-0.0676,-0.0628,-0.0635,-0.064,-0.0643,-0.0831,-0.0831,0,0,0,0,0,0,-0.0228,-0.0237,-0.03,-0.0307,-0.0275,-0.0338,-0.0345,-0.0346,-0.0439,-0.0453,-0.038,-0.0381,-0.0532,-0.0549,-0.0566,-0.0606,-0.0636,-0.0644,-0.0649,-0.0831,-0.0831,-0.0831,0,0,0,0,0,0,-0.0225,-0.0232,-0.0297,-0.0278,-0.0289,-0.0339,-0.0341,-0.0348,-0.0366,-0.0454,-0.0469,-0.0391,-0.0532,-0.0555,-0.0649,-0.0616,-0.0648,-0.0655,-0.0831,-0.0831,-0.0831,-0.0706,0,0,0,0,0,0,-0.0222,-0.023,-0.0232,-0.0277,-0.029,-0.0355,-0.0342,-0.035,-0.0379,-0.0381,-0.0469,-0.0486,-0.0534,-0.0636,-0.0657,-0.0627,-0.0661,-0.0831,-0.0831,-0.0831,-0.071,-0.0702,-0.0696,0,0,0,0,0,-0.0219,-0.0244,-0.0231,-0.024,-0.029,-0.0358,-0.0368,-0.04,-0.0379,-0.0408,-0.0456,-0.0483,-0.0651,-0.0645,-0.0668,-0.064,-0.083,-0.0831,-0.0831,-0.0714,-0.0704,-0.0696,0,0,0,0,0,0,-0.0232,-0.0251,-0.0238,-0.0271,-0.0313,-0.0364,-0.0398,-0.04,-0.0454,-0.0454,-0.0511,-0.0534,-0.0596,-0.0651,-0.0641,-0.0696,-0.0736,-0.0741,-0.0638,-0.063,-0.0623,-0.0559,-0.0668,0,0,0,0,0,-0.0227,-0.0236,-0.0271,-0.03,-0.0317,-0.0346,-0.0374,-0.0392,-0.0445,-0.0465,-0.052,-0.0573,-0.0615,-0.0651,-0.0717,-0.0767,-0.0794,-0.0759,-0.0751,-0.0744,-0.071,-0.0708,-0.0695,-0.0833,-0.0833,-0.0833,0,0,-0.024,-0.0254,-0.0259,-0.0301,-0.0328,-0.0335,-0.0362,-0.0414,-0.04,-0.0484,-0.0505,-0.0567,-0.0628,-0.0669,-0.0698,-0.0711,-0.0734,-0.0745,-0.0738,-0.0707,-0.0707,-0.0692,-0.068,-0.0833,-0.0833,-0.0833,0,0,-0.026,-0.0281,-0.0277,-0.0304,-0.0345,-0.0359,-0.0368,-0.0416,-0.0423,-0.0466,-0.0494,-0.0534,-0.063,-0.0639,-0.0655,-0.0654,-0.0701,-0.0682,-0.0585,-0.0583,-0.057,-0.0559,-0.0624,-0.062,-0.0669,-0.0668,-0.0668,0,-0.0265,-0.0248,-0.0299,-0.0299,-0.0295,-0.0355,-0.0333,-0.0362,-0.0431,-0.0419,-0.0467,-0.0522,-0.0593,-0.0569,-0.0565,-0.0628,-0.0662,-0.0606,-0.0567,-0.0557,-0.0547,-0.0617,-0.0613,-0.0662,-0.0663,-0.0664,-0.0664,0,-0.0263,-0.0244,-0.026,-0.0239,-0.0262,-0.0274,-0.0299,-0.0314,-0.0323,-0.0338,-0.0348,-0.0434,-0.045,-0.0478,-0.0523,-0.0478,-0.054,-0.056,-0.0574,-0.0524,-0.0604,-0.0602,-0.0654,-0.0656,-0.0658,-0.0659,0,0,-0.0242,-0.0241,-0.0233,-0.0188,-0.0213,-0.0225,-0.0204,-0.0186,-0.0147,-0.0217,-0.0158,-0.0226,-0.0267,-0.0287,-0.0344,-0.0342,-0.0338,-0.0414,-0.0417,-0.0452,-0.0379,-0.0413,-0.0416,-0.0344,-0.0342,-0.034,-0.0478,0,-0.0191,-0.0144,-0.0158,-0.0095,-0.0059,-0.0082,-0.0052,-0.0057,-0.0076,-0.0065,-0.0105,-0.0115,-0.0194,-0.0201,-0.0207,-0.0307,-0.032,-0.0301,-0.0445,-0.045,-0.046,-0.0408,-0.0385,-0.0502,-0.0477,-0.0476,-0.0476,0,-0.0133,-0.0105,-0.0024,0.0038,0.0051,0.0075,0.0144,0.0154,0.0148,0.0134,0.013,0.0059,0.0045,-0.0032,-0.0132,-0.0118,-0.0226,-0.0307,-0.0314,-0.0372,-0.0476,-0.0542,-0.0501,-0.0474,-0.0475,-0.0475,-0.0475,0,-0.0042,0.0012,0.0098,0.0111,0.0144,0.0197,0.0222,0.0227,0.0247,0.026,0.0264,0.0222,0.0192,0.0094,-0.0113,-0.011,-0.0248,-0.0271,-0.0403,-0.0412,-0.043,-0.0441,-0.0312,-0.0312,-0.0311,-0.0311,-0.0311,0,0.0049,0.0111,0.015,0.0188,0.0283,0.0286,0.0371,0.0384,0.0402,0.0428,0.037,0.0375,0.0228,0.0104,-0.0063,-0.0246,-0.0217,-0.0364,-0.0419,-0.0397,-0.0402,-0.04,-0.0408,-0.0316,-0.0315,-0.0314,-0.0313,0,0.0102,0.0153,0.0225,0.0288,0.0326,0.0377,0.0442,0.0473,0.0505,0.0544,0.0552,0.0484,0.0366,0.0162,-0.0032,-0.0187,-0.0361,-0.0441,-0.0442,-0.0491,-0.0542,-0.0542,-0.0554,-0.0556,-0.0557,-0.0558,-0.0559,0,0.0112,0.0168,0.0264,0.0309,0.0335,0.042,0.0467,0.0521,0.0551,0.0601,0.0615,0.0538,0.0499,0.0187,-0.0089,-0.0366,-0.0392,-0.0545,-0.0496,-0.0499,-0.0552,-0.0551,-0.055,-0.0517,-0.0518,-0.0518,-0.0519,0,0.009,0.0138,0.0184,0.0299,0.0372,0.0456,0.0538,0.0599,0.0662,0.0737,0.0817,0.0812,0.053,0.0292,-0.0115,-0.031,-0.0486,-0.0559,-0.0544,-0.0444,-0.047,-0.0521,-0.052,-0.0523,-0.0522,-0.0522,-0.0522,-0.0522,0.0034,0.0068,0.0163,0.0272,0.0362,0.05,0.0614,0.0717,0.0859,0.1001,0.0947,0.0991,0.0662,0.0228,-0.0139,-0.0506,-0.048,-0.0598,-0.0594,-0.059,-0.0545,-0.0569,-0.0638,-0.0638,-0.0638,-0.0639,-0.0639,0,-0.0021,0.006,0.0133,0.0299,0.0413,0.0486,0.0663,0.0819,0.1053,0.1129,0.1233,0.0977,0.0671,0.0315,-0.0222,-0.0561,-0.0583,-0.0656,-0.0603,-0.0598,-0.0594,-0.0546,-0.0642,-0.0642,-0.0643,-0.0643,0,0,-0.0042,0.0046,0.0125,0.0331,0.0455,0.0672,0.0814,0.1067,0.1217,0.1359,0.1386,0.1295,0.0846,0.047,-0.0009,-0.0308,-0.0367,-0.0372,-0.0341,-0.0219,-0.0209,-0.0542,-0.0461,0,0,0,0,0]}],[{"header":{"parameterUnit":"m.s-1","parameterCategory":2,"la1":30.2991,"la2":30.254,"lo1":-89.0895,"lo2":-89.0444,"dy":0.0017,"dx":0.0017,"nx":28,"ny":28,"refTime":"2025-05-26T21:00:00:Z","depth":"4","parameterNumber":2,"parameterNumberName":"U-component_of_CURRENTS"},"data":[0,0,0,0,0,0,0,0,0,0,0,0,0,0,0,0,0,0,0,0,0,0,0,0,0,0,0,0,0,0,0,0,0,0,0,0,0,0,0,0,0,0,0,0,0,0,0,0,0,0,0,0,0,0,0,0,0,0,0.1069,0.1069,0,0.1137,0.1138,0.1139,0.1283,0.1285,0.1287,0.1289,0.134,0.1339,0.1339,0,0,0,0,0,0,0,0,0,0,0,0,0,0.1033,0.1033,0.1069,0.1069,0.1069,0.1136,0.1138,0.114,0.1282,0.1285,0.1288,0.129,0.134,0.1339,0.1338,0,0,0,0,0,0,0,0,0,0,0,0,0,0.1076,0.1034,0.1069,0.1143,0.115,0.1136,0.1138,0.114,0.1282,0.1285,0.1288,0.1291,0.134,0.1339,0.1338,0.1266,0,0,0.1335,0.1335,0,0,0,0,0,0,0,0,0.1074,0.1079,0.1132,0.1138,0.1145,0.1198,0.1144,0.1179,0.1281,0.124,0.1289,0.1293,0.1283,0.1287,0.1304,0.1269,0.1271,0.1335,0.1335,0.1334,0.1334,0,0,0,0,0,0,0,0.1071,0.1076,0.1104,0.1131,0.1139,0.1161,0.1173,0.1152,0.1248,0.1243,0.1252,0.1246,0.1289,0.1305,0.1306,0.1272,0.1335,0.1334,0.1334,0.1333,0.1304,0.1304,0,0,0,0,0,0,0.1045,0.1073,0.1101,0.1105,0.1108,0.1159,0.1172,0.1184,0.1249,0.126,0.1243,0.1253,0.1305,0.1307,0.1308,0.1383,0.1334,0.1333,0.1333,0.1304,0.1304,0.1304,0,0,0,0,0,0,0.1044,0.1047,0.1098,0.1084,0.1091,0.1156,0.1168,0.1183,0.1233,0.1247,0.1261,0.1281,0.1307,0.1309,0.1319,0.138,0.1333,0.1332,0.1304,0.1304,0.1304,0.1431,0,0,0,0,0,0,0.1043,0.1047,0.1058,0.1082,0.109,0.111,0.1165,0.1182,0.1219,0.1233,0.1282,0.1289,0.131,0.1321,0.1318,0.1377,0.1331,0.1304,0.1304,0.1304,0.1427,0.1435,0.1442,0,0,0,0,0,0.1042,0.1029,0.1058,0.1062,0.11,0.1109,0.1117,0.1178,0.1217,0.1237,0.1273,0.129,0.1318,0.1319,0.1316,0.1377,0.1305,0.1304,0.1304,0.1423,0.1433,0.1441,0,0,0,0,0,0,0.0999,0.1042,0.1075,0.1074,0.1101,0.1131,0.1147,0.118,0.1224,0.1248,0.1275,0.1283,0.1332,0.13,0.1301,0.136,0.1317,0.1316,0.1409,0.1418,0.1425,0.1488,0.133,0,0,0,0,0,0.0994,0.1014,0.1046,0.1045,0.1064,0.111,0.1124,0.1165,0.1194,0.1222,0.1261,0.1287,0.1317,0.1325,0.1344,0.1343,0.1359,0.1378,0.1386,0.1393,0.1437,0.1518,0.154,0.1302,0.1303,0.1303,0,0,0.0972,0.0996,0.1007,0.1039,0.1073,0.1103,0.1132,0.1158,0.1211,0.121,0.1299,0.132,0.1323,0.137,0.1384,0.1356,0.1453,0.1392,0.1399,0.144,0.1521,0.1545,0.1566,0.1302,0.1302,0.1302,0,0,0.0934,0.097,0.0987,0.1021,0.1066,0.1095,0.1105,0.1163,0.1232,0.1271,0.132,0.1377,0.138,0.1441,0.1455,0.1491,0.1503,0.1479,0.1565,0.1643,0.1666,0.1686,0.1688,0.1708,0.147,0.1471,0.1471,0,0.0915,0.0951,0.0985,0.1017,0.1053,0.1096,0.1131,0.1187,0.1248,0.1312,0.1312,0.1426,0.1432,0.1532,0.1566,0.1524,0.1538,0.1542,0.1662,0.1682,0.1701,0.1699,0.1719,0.1477,0.1476,0.1475,0.1475,0,0.0903,0.095,0.0959,0.1035,0.1062,0.1098,0.1172,0.1241,0.1308,0.1372,0.1502,0.1536,0.1616,0.1619,0.1609,0.1747,0.1702,0.1681,0.1659,0.1734,0.1724,0.1743,0.1485,0.1483,0.1481,0.148,0,0,0.0838,0.0942,0.0954,0.1016,0.1094,0.1117,0.1212,0.132,0.1403,0.1501,0.1618,0.1719,0.1777,0.1798,0.1816,0.188,0.2006,0.1844,0.1846,0.1882,0.2139,0.1997,0.2003,0.202,0.2025,0.2029,0.2063,0,0.0845,0.0916,0.0964,0.1047,0.11,0.119,0.1281,0.1382,0.1458,0.1574,0.1693,0.1792,0.1832,0.1877,0.1973,0.1989,0.2069,0.1996,0.203,0.2031,0.1929,0.2027,0.2045,0.2077,0.2081,0.2084,0.2086,0,0.0833,0.0897,0.0974,0.1116,0.1151,0.1214,0.1368,0.1455,0.1616,0.1694,0.1838,0.1886,0.2043,0.2035,0.2206,0.2158,0.2193,0.2198,0.2198,0.2052,0.1928,0.1992,0.212,0.2117,0.2115,0.2113,0.2111,0,0.0785,0.0908,0.098,0.1025,0.1173,0.1266,0.1372,0.1514,0.16,0.1779,0.1844,0.2015,0.212,0.2212,0.2262,0.2243,0.2392,0.2345,0.2261,0.2246,0.2308,0.2287,0.2503,0.2503,0.2503,0.2503,0.2503,0,0.0777,0.0844,0.0987,0.1036,0.1152,0.128,0.1407,0.1536,0.1694,0.1787,0.1939,0.2026,0.2184,0.2262,0.2291,0.2335,0.2437,0.2317,0.2279,0.2344,0.2327,0.2318,0.2296,0.2504,0.2504,0.2504,0.2504,0,0.0709,0.0801,0.0886,0.1065,0.1126,0.122,0.1418,0.1498,0.1697,0.1812,0.1878,0.2072,0.2201,0.2289,0.2398,0.2369,0.2391,0.2387,0.2423,0.2378,0.2173,0.2157,0.2281,0.2277,0.2274,0.2271,0.2269,0,0.0684,0.0718,0.0865,0.0904,0.0999,0.1154,0.125,0.1476,0.1547,0.1813,0.1854,0.2045,0.2155,0.2209,0.2317,0.2359,0.2363,0.2331,0.2309,0.2218,0.2168,0.2156,0.2145,0.2264,0.2263,0.2262,0.2261,0,0.0616,0.0659,0.0716,0.0802,0.0902,0.1,0.1172,0.1223,0.1477,0.1644,0.1795,0.1888,0.2045,0.2133,0.2201,0.2226,0.2311,0.2296,0.2303,0.2282,0.2197,0.2148,0.2141,0.2249,0.2251,0.2252,0.2253,0,0.0535,0.0546,0.0605,0.0683,0.0771,0.0852,0.0964,0.111,0.1236,0.1547,0.1576,0.1825,0.2002,0.2067,0.2108,0.2139,0.2127,0.2047,0.2067,0.2081,0.2008,0.1871,0.1829,0,0,0,0,0,0.0451,0.0464,0.0495,0.0577,0.0654,0.0729,0.0897,0.1016,0.1257,0.1315,0.1457,0.1591,0.1748,0.1864,0.1866,0.2017,0.2111,0.2007,0.202,0.2185,0.2198,0.2136,0,0,0,0,0,0,0.04,0.0417,0.0448,0.0465,0.051,0.0611,0.072,0.0884,0.0943,0.1187,0.1286,0.1468,0.164,0.1728,0.1826,0.1859,0.183,0.215,0.2146,0.2177,0.2189,0.22,0.214,0,0,0,0,0]},{"header":{"parameterUnit":"m.s-1","parameterCategory":2,"la1":30.2991,"la2":30.254,"lo1":-89.0895,"lo2":-89.0444,"dy":0.0017,"dx":0.0017,"nx":28,"ny":28,"refTime":"2025-05-26T21:00:00:Z","depth":"4","parameterNumber":3,"parameterNumberName":"V-component_of_CURRENTS"},"data":[0,0,0,0,0,0,0,0,0,0,0,0,0,0,0,0,0,0,0,0,0,0,0,0,0,0,0,0,0,0,0,0,0,0,0,0,0,0,0,0,0,0,0,0,0,0,0,0,0,0,0,0,0,0,0,0,0,0,0.0155,0.0156,0,0.0145,0.0144,0.0144,0.007,0.0069,0.0067,0.0066,0.0048,0.0049,0.005,0,0,0,0,0,0,0,0,0,0,0,0,0,0.0092,0.0093,0.0155,0.0156,0.0156,0.0145,0.0144,0.0144,0.007,0.0069,0.0067,0.0065,0.0048,0.0049,0.005,0,0,0,0,0,0,0,0,0,0,0,0,0,0.0101,0.0094,0.0155,0.0121,0.0118,0.0145,0.0144,0.0143,0.0071,0.0069,0.0067,0.0065,0.0048,0.0049,0.005,0.0101,0,0,0.0054,0.0055,0,0,0,0,0,0,0,0,0.01,0.0102,0.0126,0.0123,0.012,0.011,0.0115,0.013,0.0071,0.0085,0.0066,0.0064,0.0073,0.0072,0.0069,0.01,0.01,0.0054,0.0055,0.0056,0.0056,0,0,0,0,0,0,0,0.01,0.0102,0.0147,0.0126,0.0123,0.0099,0.0098,0.0117,0.0088,0.0083,0.0079,0.0085,0.007,0.0068,0.0068,0.0099,0.0054,0.0055,0.0056,0.0057,0.0141,0.0143,0,0,0,0,0,0,0.0113,0.0102,0.0147,0.0147,0.0109,0.0102,0.0101,0.0112,0.0087,0.0083,0.0087,0.0081,0.0067,0.0067,0.0067,0.0082,0.0056,0.0057,0.0058,0.014,0.0142,0.0143,0,0,0,0,0,0,0.0112,0.0117,0.0148,0.0127,0.0129,0.0106,0.012,0.0113,0.0101,0.0091,0.0084,0.008,0.0065,0.0065,0.0093,0.0082,0.0057,0.0059,0.0138,0.014,0.0142,0.014,0,0,0,0,0,0,0.011,0.0117,0.0131,0.0128,0.0131,0.0172,0.0122,0.0115,0.0111,0.0103,0.0084,0.008,0.0063,0.0091,0.0094,0.0084,0.006,0.0136,0.0139,0.0142,0.0138,0.0142,0.0145,0,0,0,0,0,0.0108,0.0152,0.0132,0.0137,0.0151,0.0174,0.0173,0.0146,0.0113,0.0123,0.0111,0.008,0.0109,0.0095,0.0097,0.0086,0.0135,0.0138,0.0142,0.0137,0.0141,0.0145,0,0,0,0,0,0,0.0145,0.0149,0.0126,0.0171,0.017,0.0163,0.018,0.0152,0.015,0.0146,0.0112,0.0111,0.0123,0.0126,0.0109,0.0123,0.0113,0.0117,0.0108,0.0112,0.0116,0.0067,0.0061,0,0,0,0,0,0.0158,0.0183,0.0177,0.0213,0.0216,0.0193,0.0198,0.0182,0.0181,0.0175,0.0156,0.0148,0.0144,0.0145,0.0151,0.0175,0.0112,0.0169,0.0172,0.0175,0.014,0.0022,0.0008,0.0154,0.0154,0.0154,0,0,0.0184,0.0191,0.0204,0.0221,0.0217,0.0233,0.019,0.0214,0.0212,0.018,0.018,0.0165,0.0156,0.0167,0.0172,0.0164,0.0116,0.0179,0.018,0.0144,0.0023,0.0008,-0.0006,0.0156,0.0156,0.0156,0,0,0.025,0.0252,0.0284,0.0287,0.0294,0.028,0.0286,0.0277,0.0256,0.0275,0.023,0.0199,0.0232,0.0181,0.017,0.0203,0.0138,0.0227,0.0197,0.0084,0.0068,0.0054,0.0003,-0.0016,0.0225,0.0225,0.0225,0,0.0275,0.0305,0.03,0.0328,0.0326,0.03,0.032,0.0313,0.0309,0.0276,0.0285,0.0227,0.022,0.0163,0.0172,0.0198,0.015,0.0177,0.008,0.0064,0.0049,-0.0,-0.0022,0.0226,0.0226,0.0226,0.0226,0,0.0351,0.0367,0.0393,0.04,0.0408,0.0429,0.0411,0.04,0.0373,0.0337,0.0283,0.0255,0.0198,0.0202,0.0201,0.0098,0.0107,0.0093,0.0052,0.0033,-0.0015,-0.0037,0.0226,0.0226,0.0226,0.0226,0,0,0.0404,0.0433,0.0436,0.0425,0.0437,0.0442,0.0448,0.041,0.0372,0.0346,0.0271,0.0237,0.0174,0.0156,0.0123,0.0028,-0.0093,0.0022,0.0016,-0.0058,-0.0307,-0.0213,-0.0228,-0.0131,-0.0136,-0.014,-0.0282,0,0.0443,0.0483,0.0496,0.0512,0.0511,0.0488,0.0484,0.0449,0.041,0.0344,0.025,0.0197,0.0174,0.014,0.0032,-0.0059,-0.0159,-0.0051,-0.0252,-0.0258,-0.02,-0.0255,-0.0155,-0.0299,-0.0305,-0.0308,-0.0311,0,0.0482,0.0496,0.0524,0.0507,0.0507,0.0522,0.0462,0.0462,0.0372,0.0337,0.0234,0.0174,0.0035,0.0025,-0.0207,-0.0133,-0.0231,-0.0307,-0.0315,-0.0258,-0.0209,-0.0284,-0.0352,-0.0349,-0.0346,-0.0343,-0.0341,0,0.0457,0.0495,0.0504,0.0507,0.0511,0.0504,0.0497,0.0442,0.0428,0.0318,0.0288,0.0111,0.0042,-0.0142,-0.0263,-0.0257,-0.0501,-0.0513,-0.0531,-0.0522,-0.0565,-0.0549,-0.0717,-0.0717,-0.0717,-0.0716,-0.0716,0,0.045,0.045,0.0493,0.0491,0.0496,0.0497,0.0487,0.0452,0.0406,0.0386,0.0274,0.0217,-0.0009,-0.0146,-0.0291,-0.0455,-0.0531,-0.0566,-0.0578,-0.0547,-0.0528,-0.0579,-0.0561,-0.0722,-0.072,-0.0719,-0.0718,0,0.0405,0.0431,0.0448,0.0475,0.0485,0.0487,0.0518,0.0513,0.0467,0.0436,0.0407,0.0267,0.0095,-0.0094,-0.0363,-0.0455,-0.0637,-0.0675,-0.0585,-0.0583,-0.0581,-0.0561,-0.0756,-0.0755,-0.0753,-0.0752,-0.0751,0,0.0382,0.0396,0.045,0.0487,0.0506,0.0527,0.0556,0.0537,0.0551,0.048,0.0468,0.0308,0.0204,-0.0095,-0.0306,-0.0579,-0.0606,-0.0691,-0.0703,-0.0606,-0.0598,-0.058,-0.0562,-0.0749,-0.0749,-0.0748,-0.0748,0,0.0365,0.04,0.0428,0.0501,0.0549,0.0594,0.0631,0.0639,0.0629,0.0592,0.0515,0.0357,0.0178,-0.0068,-0.0249,-0.0452,-0.0642,-0.0679,-0.0685,-0.0697,-0.0599,-0.0589,-0.0573,-0.0744,-0.0744,-0.0745,-0.0745,0,0.038,0.0406,0.0474,0.0528,0.0595,0.0646,0.0656,0.0681,0.0678,0.0614,0.0588,0.0387,0.0261,-0.0001,-0.0181,-0.0352,-0.0422,-0.0485,-0.0502,-0.051,-0.0383,-0.022,-0.029,0,0,0,0,0,0.0397,0.0439,0.0503,0.0568,0.0633,0.0663,0.0714,0.0726,0.0714,0.0681,0.0638,0.0481,0.0206,0.0072,-0.0089,-0.0182,-0.046,-0.0376,-0.0542,-0.0719,-0.0724,-0.0608,0,0,0,0,0,0,0.0421,0.048,0.0504,0.0592,0.0641,0.0708,0.0737,0.0732,0.0713,0.0677,0.0533,0.0456,0.0184,0.0301,-0.0089,-0.0144,-0.0267,-0.051,-0.0513,-0.0716,-0.072,-0.0725,-0.0607,0,0,0,0,0]}]]